^^
Saratoga-Weather Station Historical Data
Daily Summary for May 20, 2020 Units:  English    Metric   Both
Daily Weekly Monthly Yearly Custom
  High: Low: Average:
Temperature: 48.4 °F 41.5 °F 45 °F
Dew Point: 43.7 °F 37.8 °F 41.2 °F
Humidity: 95% 74% 87%
Wind Speed: 25.1mph 0mph 3mph
Wind Gust: 27mph - -
Wind- - SW
Pressure: 30.2 in 30 in -
Precipitation: 0.2 in    
Historical Graphs
 
 
Tabular Data for May 20, 2020
Time Temperature Dew Point Pressure Wind Wind Speed Wind Gust Humidity Rainfall Rate (Hourly) solar
00:03 41.7 °F 39 °F 30.2 in NW 0.9 mph 7 mph 90% 0.02 in 0 W/m2
00:08 41.7 °F 39.2 °F 30.2 in WSW 2 mph 3 mph 91% 0.03 in 0 W/m2
00:14 41.5 °F 39.2 °F 30.2 in Calm   7 mph 91% 0.02 in 0 W/m2
00:19 41.5 °F 39.2 °F 30.2 in Calm   4 mph 91% 0.02 in 0 W/m2
00:24 41.5 °F 39.2 °F 30.2 in Calm   6 mph 91% 0.02 in 0 W/m2
00:29 41.5 °F 39.4 °F 30.2 in NW 2 mph 4 mph 92% 0.03 in 0 W/m2
00:34 41.5 °F 39.4 °F 30.2 in Calm   5 mph 92% 0.03 in 0 W/m2
00:39 41.5 °F 39.4 °F 30.2 in NW 0.9 mph 5 mph 92% 0.02 in 0 W/m2
00:44 41.5 °F 39.4 °F 30.2 in West 0.9 mph 2 mph 92% 0.03 in 0 W/m2
00:49 41.5 °F 39.4 °F 30.2 in Calm   5 mph 92% 0.03 in 0 W/m2
00:54 41.5 °F 39.4 °F 30.2 in NW 0.9 mph 2 mph 92% 0.03 in 0 W/m2
00:59 41.5 °F 39.7 °F 30.2 in SSE 4.9 mph 7 mph 93% 0.02 in 0 W/m2
01:04 41.5 °F 39.7 °F 30.2 in West 0.9 mph 3 mph 93% 0.02 in 0 W/m2
01:09 41.5 °F 39.7 °F 30.2 in SE 2.9 mph 7 mph 93% 0.02 in 0 W/m2
01:14 41.5 °F 39.7 °F 30.2 in SW 0.9 mph 3 mph 93% 0.02 in 0 W/m2
01:20 41.5 °F 39.7 °F 30.2 in SW 0.9 mph 6 mph 93% 0.02 in 0 W/m2
01:25 41.5 °F 39.7 °F 30.2 in West 4 mph 6 mph 93% 0.02 in 0 W/m2
01:30 41.5 °F 39.7 °F 30.2 in West 2 mph 4 mph 93% 0.02 in 0 W/m2
01:35 41.5 °F 39.7 °F 30.2 in West 2 mph 6 mph 93% 0.02 in 0 W/m2
01:40 41.5 °F 39.7 °F 30.2 in NW 0.9 mph 3 mph 93% 0.02 in 0 W/m2
01:45 41.5 °F 39.7 °F 30.2 in ENE 0.9 mph 6 mph 93% 0.02 in 0 W/m2
01:50 41.5 °F 39.9 °F 30.2 in NW 0.9 mph 6 mph 94% 0.02 in 0 W/m2
01:55 41.5 °F 39.9 °F 30.2 in West 2 mph 8 mph 94% 0.02 in 0 W/m2
02:00 41.5 °F 39.9 °F 30.2 in SSE 0.9 mph 6 mph 94% 0.02 in 0 W/m2
02:05 41.5 °F 39.9 °F 30.2 in West 2.9 mph 4 mph 94% 0.02 in 0 W/m2
02:10 41.5 °F 39.9 °F 30.2 in WNW 0.9 mph 6 mph 94% 0.02 in 0 W/m2
02:16 41.7 °F 40.1 °F 30.2 in West 2 mph 2 mph 94% 0.02 in 0 W/m2
02:21 41.7 °F 40.1 °F 30.2 in WNW 2.9 mph 3 mph 94% 0.02 in 0 W/m2
02:26 41.7 °F 40.1 °F 30.2 in NW 2 mph 3 mph 94% 0.01 in 0 W/m2
02:31 41.7 °F 40.1 °F 30.2 in NE 0.9 mph 3 mph 94% 0.01 in 0 W/m2
02:36 41.7 °F 40.1 °F 30.2 in NW 2 mph 3 mph 94% 0.01 in 0 W/m2
02:41 41.9 °F 40.3 °F 30.2 in WNW 2 mph 2 mph 94% 0.01 in 0 W/m2
02:46 41.9 °F 40.3 °F 30.2 in Calm   5 mph 94% 0 in 0 W/m2
02:51 41.9 °F 40.3 °F 30.2 in North 0.9 mph 3 mph 94% 0 in 0 W/m2
02:56 42.1 °F 40.5 °F 30.2 in NW 0.9 mph 5 mph 94% 0 in 0 W/m2
03:01 42.1 °F 40.5 °F 30.2 in Calm   1 mph 94% 0 in 0 W/m2
03:06 42.1 °F 40.5 °F 30.2 in NNE 0.9 mph 4 mph 94% 0 in 0 W/m2
03:11 42.1 °F 40.5 °F 30.2 in NNE 2 mph 3 mph 94% 0 in 0 W/m2
03:16 42.1 °F 40.5 °F 30.2 in Calm   3 mph 94% 0 in 0 W/m2
03:21 42.1 °F 40.5 °F 30.2 in NNE 0.9 mph 9 mph 94% 0 in 0 W/m2
03:26 42.3 °F 40.6 °F 30.2 in ENE 2.9 mph 5 mph 94% 0 in 0 W/m2
03:31 42.3 °F 40.6 °F 30.2 in North 2.9 mph 9 mph 94% 0 in 0 W/m2
03:36 42.3 °F 40.6 °F 30.2 in Calm   3 mph 94% 0 in 0 W/m2
03:41 42.3 °F 40.6 °F 30.2 in North 0.9 mph 3 mph 94% 0 in 0 W/m2
03:46 42.3 °F 40.6 °F 30.2 in North 2 mph 2 mph 94% 0 in 0 W/m2
03:51 42.3 °F 40.6 °F 30.2 in North 0.9 mph 2 mph 94% 0 in 0 W/m2
03:56 42.4 °F 40.8 °F 30.2 in NW 0.9 mph 2 mph 94% 0 in 0 W/m2
04:01 42.4 °F 40.8 °F 30.2 in Calm   2 mph 94% 0 in 0 W/m2
04:06 42.4 °F 40.8 °F 30.2 in NNW 0.9 mph 4 mph 94% 0 in 0 W/m2
04:11 42.4 °F 40.8 °F 30.2 in WNW 0.9 mph 6 mph 94% 0 in 0 W/m2
04:16 42.4 °F 40.8 °F 30.2 in NW 4 mph 5 mph 94% 0 in 0 W/m2
04:21 42.4 °F 40.8 °F 30.2 in Calm   4 mph 94% 0 in 0 W/m2
04:26 42.6 °F 41 °F 30.2 in WNW 4 mph 5 mph 94% 0 in 0 W/m2
04:31 42.6 °F 41 °F 30.2 in WNW 4 mph 7 mph 94% 0 in 0 W/m2
04:36 42.6 °F 41 °F 30.2 in North 2 mph 3 mph 94% 0 in 0 W/m2
04:41 42.6 °F 41 °F 30.1 in NNW 0.9 mph 9 mph 94% 0 in 0 W/m2
04:46 42.6 °F 41 °F 30.1 in NE 2 mph 3 mph 94% 0 in 0 W/m2
04:51 42.6 °F 41 °F 30.1 in WSW 8.1 mph 9 mph 94% 0 in 0 W/m2
04:56 42.6 °F 41 °F 30.1 in East 0.9 mph 4 mph 94% 0 in 0 W/m2
05:01 42.6 °F 41.4 °F 30.1 in NW 2 mph 9 mph 95% 0 in 0 W/m2
05:06 42.6 °F 41.4 °F 30.1 in Calm   4 mph 95% 0 in 0 W/m2
05:11 42.6 °F 41.4 °F 30.1 in North 0.9 mph 6 mph 95% 0 in 0 W/m2
05:16 42.6 °F 41.4 °F 30.1 in NE 2 mph 2 mph 95% 0 in 0 W/m2
05:21 42.8 °F 41.5 °F 30.1 in WNW 2 mph 4 mph 95% 0 in 0 W/m2
05:26 42.8 °F 41.5 °F 30.1 in NE 2 mph 2 mph 95% 0 in 0 W/m2
05:31 42.8 °F 41.5 °F 30.1 in NE 0.9 mph 2 mph 95% 0 in 0 W/m2
05:36 43 °F 41.7 °F 30.1 in ENE 0.9 mph 3 mph 95% 0 in 0 W/m2
05:41 43 °F 41.7 °F 30.1 in NNW 2 mph 5 mph 95% 0 in 0 W/m2
05:46 43 °F 41.7 °F 30.1 in Calm   3 mph 95% 0 in 0 W/m2
05:51 43 °F 41.7 °F 30.1 in Calm   5 mph 95% 0 in 0 W/m2
05:56 43.2 °F 41.9 °F 30.1 in NNW 2 mph 2 mph 95% 0 in 0 W/m2
06:01 43.2 °F 41.9 °F 30.1 in West 0.9 mph 4 mph 95% 0 in 0 W/m2
06:06 43.3 °F 42.1 °F 30.1 in West 0.9 mph 5 mph 95% 0 in 0 W/m2
06:11 43.3 °F 42.1 °F 30.1 in ENE 0.9 mph 2 mph 95% 0 in 0 W/m2
06:16 43.3 °F 42.1 °F 30.1 in ENE 2 mph 3 mph 95% 0 in 0 W/m2
06:21 43.5 °F 42.3 °F 30.1 in NNW 2 mph 3 mph 95% 0 in 0 W/m2
06:26 43.5 °F 42.3 °F 30.1 in NNW 0.9 mph 1 mph 95% 0 in 0 W/m2
06:31 43.5 °F 42.3 °F 30.1 in NNE 2 mph 2 mph 95% 0 in 0 W/m2
06:36 43.5 °F 42.3 °F 30.1 in NNW 0.9 mph 2 mph 95% 0 in 0 W/m2
06:41 43.7 °F 42.4 °F 30.1 in Calm   2 mph 95% 0 in 0 W/m2
06:46 43.9 °F 42.3 °F 30.1 in North 2 mph 3 mph 94% 0 in 0 W/m2
06:51 43.9 °F 42.3 °F 30.1 in Calm   2 mph 94% 0 in 0 W/m2
06:56 43.9 °F 42.3 °F 30.1 in East 2 mph 2 mph 94% 0 in 0 W/m2
07:01 43.9 °F 42.3 °F 30.1 in NNE 2 mph 4 mph 94% 0 in 0 W/m2
07:06 43.9 °F 42.3 °F 30.1 in Calm   2 mph 94% 0 in 0 W/m2
07:11 43.9 °F 42.3 °F 30.1 in North 0.9 mph 3 mph 94% 0 in 0 W/m2
07:16 43.9 °F 42.3 °F 30.1 in NNW 0.9 mph 4 mph 94% 0 in 0 W/m2
07:21 44.1 °F 42.4 °F 30.1 in NW 2.9 mph 7 mph 94% 0 in 0 W/m2
07:26 44.1 °F 42.4 °F 30.1 in NE 0.9 mph 4 mph 94% 0 in 0 W/m2
07:31 44.1 °F 42.4 °F 30.1 in NNW 0.9 mph 3 mph 94% 0 in 0 W/m2
07:36 44.1 °F 42.4 °F 30.1 in ENE 2 mph 4 mph 94% 0 in 0 W/m2
07:41 44.1 °F 42.4 °F 30.1 in WNW 0.9 mph 9 mph 94% 0 in 0 W/m2
07:46 44.2 °F 42.6 °F 30.1 in Calm   3 mph 94% 0 in 0 W/m2
07:51 44.2 °F 42.6 °F 30.1 in WNW 0.9 mph 5 mph 94% 0 in 9 W/m2
07:56 44.2 °F 42.6 °F 30.1 in NNW 0.9 mph 3 mph 94% 0 in 12 W/m2
08:01 44.2 °F 42.6 °F 30.1 in East 2.9 mph 3 mph 94% 0 in 18 W/m2
08:06 44.2 °F 42.6 °F 30.1 in Calm   3 mph 94% 0 in 14 W/m2
08:11 44.2 °F 42.6 °F 30.1 in Calm   1 mph 94% 0 in 11 W/m2
08:16 44.2 °F 42.6 °F 30.1 in SW 0.9 mph 4 mph 94% 0 in 11 W/m2
08:21 44.4 °F 42.8 °F 30.1 in WNW 2.9 mph 3 mph 94% 0 in 11 W/m2
08:26 44.4 °F 42.4 °F 30.1 in Calm   1 mph 93% 0 in 12 W/m2
08:31 44.4 °F 42.4 °F 30.1 in NNW 0.9 mph 4 mph 93% 0 in 14 W/m2
08:36 44.4 °F 42.4 °F 30.1 in Calm   3 mph 93% 0 in 18 W/m2
08:41 44.6 °F 42.6 °F 30.1 in ENE 2 mph 4 mph 93% 0 in 30 W/m2
08:46 44.6 °F 42.6 °F 30.1 in NE 0.9 mph 4 mph 93% 0 in 21 W/m2
08:51 44.6 °F 42.6 °F 30.1 in NNW 2.9 mph 3 mph 93% 0 in 21 W/m2
08:56 44.8 °F 42.8 °F 30.1 in NNE 2.9 mph 3 mph 93% 0 in 30 W/m2
09:01 44.8 °F 42.8 °F 30.1 in Calm   3 mph 93% 0 in 30 W/m2
09:06 44.8 °F 42.8 °F 30.1 in NE 4.9 mph 5 mph 93% 0 in 18 W/m2
09:11 44.8 °F 42.8 °F 30.1 in SSW 2 mph 3 mph 93% 0 in 28 W/m2
09:16 44.8 °F 42.8 °F 30.1 in West 2.9 mph 7 mph 93% 0 in 44 W/m2
09:21 44.8 °F 42.8 °F 30.1 in Calm   3 mph 93% 0 in 63 W/m2
09:26 44.8 °F 42.8 °F 30.1 in NNW 0.9 mph 6 mph 93% 0 in 62 W/m2
09:31 45 °F 43 °F 30.1 in Calm   2 mph 93% 0 in 70 W/m2
09:36 45 °F 43 °F 30.1 in WSW 2 mph 4 mph 93% 0 in 79 W/m2
09:41 45 °F 43 °F 30.1 in NNW 2.9 mph 3 mph 93% 0 in 70 W/m2
09:46 45.1 °F 43.2 °F 30.1 in WSW 0.9 mph 4 mph 93% 0 in 95 W/m2
09:51 45.1 °F 43.2 °F 30.1 in Calm     93% 0 in 53 W/m2
09:56 45.1 °F 43.2 °F 30.1 in Calm   1 mph 93% 0 in 63 W/m2
10:01 45.3 °F 43.3 °F 30.1 in ENE 0.9 mph 2 mph 93% 0 in 107 W/m2
10:06 45.3 °F 43.3 °F 30.1 in NNE 0.9 mph 3 mph 93% 0 in 121 W/m2
10:11 45.5 °F 43.5 °F 30.1 in Calm   7 mph 93% 0 in 148 W/m2
10:16 45.7 °F 43.5 °F 30.1 in Calm   2 mph 92% 0 in 107 W/m2
10:21 45.7 °F 43.5 °F 30.1 in NW 2 mph 3 mph 92% 0 in 98 W/m2
10:26 45.9 °F 43.7 °F 30.1 in NE 2 mph 4 mph 92% 0 in 77 W/m2
10:31 45.9 °F 43.7 °F 30.1 in NW 2 mph 6 mph 92% 0 in 144 W/m2
10:36 45.9 °F 43.7 °F 30.1 in West 2 mph 3 mph 92% 0 in 132 W/m2
10:41 45.9 °F 43.7 °F 30.1 in North 0.9 mph 1 mph 92% 0 in 165 W/m2
10:46 45.9 °F 43.7 °F 30.1 in WSW 2.9 mph 3 mph 92% 0 in 135 W/m2
10:51 46 °F 43.5 °F 30.1 in ENE 2 mph 5 mph 91% 0.01 in 148 W/m2
10:56 46 °F 43.5 °F 30.1 in Calm   3 mph 91% 0.01 in 123 W/m2
11:01 46 °F 43.5 °F 30.1 in WSW 4.9 mph 9 mph 91% 0.01 in 135 W/m2
11:06 46 °F 43.5 °F 30.1 in ENE 6.9 mph 7 mph 91% 0.01 in 121 W/m2
11:11 46 °F 43.3 °F 30.1 in WNW 4.9 mph 8 mph 90% 0.01 in 67 W/m2
11:16 46 °F 43.5 °F 30.1 in SW 2.9 mph 4 mph 91% 0.01 in 62 W/m2
11:21 45.9 °F 43.3 °F 30.1 in NW 4 mph 7 mph 91% 0.01 in 137 W/m2
11:26 45.9 °F 43.3 °F 30.1 in NW 2.9 mph 5 mph 91% 0.01 in 44 W/m2
11:31 45.9 °F 43.3 °F 30.1 in NW 2.9 mph 4 mph 91% 0.01 in 109 W/m2
11:36 45.7 °F 43.2 °F 30.1 in WSW 4 mph 7 mph 91% 0.01 in 76 W/m2
11:41 45.7 °F 43.2 °F 30.1 in NW 0.9 mph 4 mph 91% 0.01 in 46 W/m2
11:46 45.7 °F 43.2 °F 30.1 in ENE 2 mph 7 mph 91% 0.01 in 28 W/m2
11:51 45.7 °F 43.2 °F 30.1 in WSW 0.9 mph 2 mph 91% 0 in 74 W/m2
11:56 45.7 °F 43 °F 30.1 in South 2 mph 7 mph 90% 0 in 107 W/m2
12:02 45.9 °F 43.2 °F 30.1 in West 2 mph 2 mph 90% 0 in 97 W/m2
12:07 45.9 °F 43.2 °F 30.1 in NW 2 mph 3 mph 90% 0 in 90 W/m2
12:12 46 °F 43.3 °F 30.1 in WNW 2 mph 3 mph 90% 0 in 102 W/m2
12:17 46 °F 43 °F 30.1 in North 2 mph 3 mph 89% 0 in 83 W/m2
12:22 46 °F 42.6 °F 30.1 in ESE 2.9 mph 5 mph 88% 0 in 69 W/m2
12:27 46.2 °F 42.8 °F 30.1 in WNW 4 mph 6 mph 88% 0 in 83 W/m2
12:32 46.2 °F 42.6 °F 30.1 in Calm   4 mph 87% 0 in 90 W/m2
12:37 46.2 °F 42.6 °F 30.1 in WSW 6.9 mph 10 mph 87% 0 in 76 W/m2
12:42 46.4 °F 42.8 °F 30.1 in NW 0.9 mph 4 mph 87% 0 in 76 W/m2
12:47 46.4 °F 42.4 °F 30.1 in West 10 mph 10 mph 86% 0 in 90 W/m2
12:52 46.6 °F 42.6 °F 30.1 in East 4 mph 6 mph 86% 0 in 83 W/m2
12:57 46.6 °F 42.3 °F 30.1 in ESE 7 mph 7 mph 85% 0 in 95 W/m2
13:02 46.8 °F 42.3 °F 30.1 in SSE 2 mph 4 mph 84% 0 in 130 W/m2
13:07 46.9 °F 42.4 °F 30.1 in WNW 4 mph 4 mph 84% 0 in 248 W/m2
13:12 47.1 °F 42.3 °F 30.1 in SSW 2 mph 6 mph 83% 0 in 199 W/m2
13:17 47.5 °F 42.3 °F 30.1 in South 2 mph 4 mph 82% 0 in 186 W/m2
13:22 47.7 °F 42.4 °F 30.1 in WNW 2.9 mph 4 mph 82% 0 in 90 W/m2
13:27 47.5 °F 41.5 °F 30.1 in WNW 6.9 mph 11 mph 80% 0 in 137 W/m2
13:32 47.5 °F 41.5 °F 30.1 in WNW 6.9 mph 10 mph 80% 0 in 100 W/m2
13:37 47.5 °F 41.5 °F 30.1 in SSE 6 mph 6 mph 80% 0 in 167 W/m2
13:42 47.5 °F 41.5 °F 30.1 in NW 4 mph 10 mph 80% 0 in 100 W/m2
13:47 47.5 °F 41.5 °F 30.1 in NW 8.1 mph 10 mph 80% 0 in 102 W/m2
13:52 47.5 °F 41.5 °F 30.1 in SW 2 mph 6 mph 80% 0 in 60 W/m2
13:57 47.5 °F 41.5 °F 30.1 in West 4 mph 10 mph 80% 0 in 67 W/m2
14:02 47.3 °F 41.4 °F 30.1 in SSW 2 mph 3 mph 80% 0 in 51 W/m2
14:07 47.1 °F 41.4 °F 30.1 in WNW 2 mph 7 mph 80% 0 in 63 W/m2
14:12 47.1 °F 41.4 °F 30.1 in NW 2.9 mph 3 mph 80% 0 in 58 W/m2
14:17 47.1 °F 41.5 °F 30.1 in North 2.9 mph 3 mph 81% 0 in 120 W/m2
14:22 47.3 °F 41.7 °F 30.1 in ESE 6 mph 7 mph 81% 0 in 135 W/m2
14:27 47.3 °F 41.7 °F 30.1 in NW 2 mph 8 mph 81% 0 in 120 W/m2
14:32 47.5 °F 41.9 °F 30.1 in WNW 2.9 mph 4 mph 81% 0 in 209 W/m2
14:37 47.7 °F 41.7 °F 30.1 in West 2 mph 7 mph 80% 0 in 179 W/m2
14:42 47.8 °F 41.9 °F 30.1 in Calm   5 mph 80% 0 in 174 W/m2
14:47 47.8 °F 41.7 °F 30.1 in NW 0.9 mph 9 mph 79% 0 in 155 W/m2
14:52 48 °F 41.9 °F 30.1 in West 0.9 mph 4 mph 79% 0 in 97 W/m2
14:57 48 °F 41.9 °F 30.1 in West 2 mph 11 mph 79% 0 in 102 W/m2
15:02 47.8 °F 41.7 °F 30.1 in NW 6.9 mph 7 mph 79% 0 in 72 W/m2
15:07 47.8 °F 41.7 °F 30.1 in WNW 4 mph 13 mph 79% 0 in 54 W/m2
15:12 47.7 °F 41.5 °F 30.1 in NNW 8.9 mph 10 mph 79% 0 in 53 W/m2
15:17 47.7 °F 41.5 °F 30.1 in NE 2.9 mph 12 mph 79% 0 in 40 W/m2
15:22 47.7 °F 41.7 °F 30.1 in Calm   8 mph 80% 0 in 141 W/m2
15:27 47.7 °F 41.7 °F 30.1 in WSW 4 mph 4 mph 80% 0 in 127 W/m2
15:32 47.7 °F 41.5 °F 30.1 in West 4 mph 6 mph 79% 0 in 121 W/m2
15:37 47.8 °F 41.7 °F 30 in North 2 mph 4 mph 79% 0 in 118 W/m2
15:42 48 °F 41.5 °F 30 in NNE 0.9 mph 9 mph 78% 0 in 100 W/m2
15:47 48 °F 41.2 °F 30 in NNW 2 mph 3 mph 77% 0 in 98 W/m2
15:52 48.2 °F 41.4 °F 30 in NW 6 mph 14 mph 77% 0 in 100 W/m2
15:57 48.2 °F 40.6 °F 30 in West 4 mph 7 mph 75% 0 in 105 W/m2
16:02 48.4 °F 40.8 °F 30 in SSE 4 mph 14 mph 75% 0 in 95 W/m2
16:07 48.4 °F 40.8 °F 30 in West 8.1 mph 8 mph 75% 0 in 76 W/m2
16:13 48.4 °F 40.8 °F 30 in WNW 4.9 mph 14 mph 75% 0 in 72 W/m2
16:18 48.2 °F 40.6 °F 30 in NE 2.9 mph 5 mph 75% 0 in 65 W/m2
16:23 48.2 °F 40.6 °F 30 in NE 4.9 mph 6 mph 75% 0 in 53 W/m2
16:28 48.2 °F 40.6 °F 30 in Calm   4 mph 75% 0 in 56 W/m2
16:33 48.2 °F 40.6 °F 30 in NW 2.9 mph 3 mph 75% 0 in 51 W/m2
16:38 48.2 °F 40.6 °F 30 in WNW 6.9 mph 7 mph 75% 0 in 42 W/m2
16:43 48 °F 40.5 °F 30 in NE 2.9 mph 9 mph 75% 0 in 42 W/m2
16:48 48.2 °F 40.6 °F 30 in NW 2 mph 4 mph 75% 0 in 39 W/m2
16:53 48 °F 40.5 °F 30 in WNW 4.9 mph 7 mph 75% 0 in 33 W/m2
16:58 48 °F 40.5 °F 30 in NNW 0.9 mph 2 mph 75% 0 in 33 W/m2
17:03 48 °F 40.5 °F 30 in WNW 6.9 mph 7 mph 75% 0 in 26 W/m2
17:08 48 °F 40.5 °F 30 in North 4 mph 6 mph 75% 0 in 32 W/m2
17:13 48 °F 40.5 °F 30 in WNW 2 mph 3 mph 75% 0 in 32 W/m2
17:18 48 °F 40.5 °F 30 in NE 4 mph 4 mph 75% 0 in 28 W/m2
17:23 48 °F 40.5 °F 30 in East 2 mph 9 mph 75% 0 in 23 W/m2
17:28 48 °F 40.5 °F 30 in ENE 2.9 mph 4 mph 75% 0 in 16 W/m2
17:33 48 °F 40.5 °F 30 in NW 0.9 mph 9 mph 75% 0 in 12 W/m2
17:38 48 °F 40.5 °F 30 in WSW 2.9 mph 7 mph 75% 0 in 9 W/m2
17:44 47.8 °F 40.3 °F 30 in North 4 mph 8 mph 75% 0 in 7 W/m2
17:49 47.8 °F 40.3 °F 30 in West 6.9 mph 15 mph 75% 0 in 5 W/m2
17:54 47.8 °F 40.3 °F 30 in NW 2 mph 5 mph 75% 0 in 0 W/m2
17:59 47.8 °F 40.3 °F 30 in NW 2 mph 15 mph 75% 0 in 0 W/m2
18:04 47.8 °F 40.3 °F 30 in NW 6 mph 10 mph 75% 0 in 0 W/m2
18:09 47.8 °F 39.9 °F 30 in NW 4.9 mph 9 mph 74% 0 in 0 W/m2
18:14 47.8 °F 39.9 °F 30 in West 0.9 mph 9 mph 74% 0 in 0 W/m2
18:19 47.8 °F 39.9 °F 30 in NW 4 mph 7 mph 74% 0 in 0 W/m2
18:24 47.8 °F 39.9 °F 30 in North 0.9 mph 6 mph 74% 0 in 0 W/m2
18:29 47.8 °F 39.9 °F 30 in NNW 2 mph 5 mph 74% 0 in 0 W/m2
18:34 47.8 °F 40.3 °F 30 in NNW 2 mph 8 mph 75% 0 in 0 W/m2
18:39 47.7 °F 40.1 °F 30 in East 8.9 mph 9 mph 75% 0 in 0 W/m2
18:44 47.7 °F 40.1 °F 30 in NW 2.9 mph 3 mph 75% 0 in 0 W/m2
18:49 47.7 °F 40.1 °F 30 in NNW 4 mph 9 mph 75% 0 in 0 W/m2
18:54 47.8 °F 39.9 °F 30 in WNW 2 mph 8 mph 74% 0 in 0 W/m2
18:59 47.8 °F 39.9 °F 30 in WNW 2.9 mph 4 mph 74% 0 in 0 W/m2
19:04 47.8 °F 39.9 °F 30 in NNE 2.9 mph 5 mph 74% 0 in 0 W/m2
19:09 47.8 °F 39.9 °F 30 in ENE 2 mph 4 mph 74% 0 in 0 W/m2
19:14 47.8 °F 39.9 °F 30 in WSW 4 mph 8 mph 74% 0 in 0 W/m2
19:19 47.8 °F 39.9 °F 30 in NNE 2 mph 7 mph 74% 0 in 0 W/m2
19:24 47.8 °F 39.9 °F 30 in WNW 2.9 mph 7 mph 74% 0 in 0 W/m2
19:29 47.8 °F 40.3 °F 30 in WNW 2.9 mph 4 mph 75% 0 in 0 W/m2
19:34 47.8 °F 39.9 °F 30 in NE 0.9 mph 9 mph 74% 0 in 0 W/m2
19:39 47.8 °F 39.9 °F 30 in NW 6 mph 12 mph 74% 0 in 0 W/m2
19:44 48 °F 40.5 °F 30 in WNW 4.9 mph 15 mph 75% 0 in 0 W/m2
19:49 48 °F 40.1 °F 30 in West 6 mph 6 mph 74% 0 in 0 W/m2
19:54 48 °F 40.1 °F 30 in WNW 4.9 mph 12 mph 74% 0 in 0 W/m2
19:59 48.2 °F 40.3 °F 30 in North 2 mph 9 mph 74% 0 in 0 W/m2
20:04 48 °F 40.5 °F 30 in WNW 6 mph 9 mph 75% 0 in 0 W/m2
20:09 48 °F 40.5 °F 30 in West 8.1 mph 11 mph 75% 0 in 0 W/m2
20:14 48 °F 40.8 °F 30 in North 2.9 mph 3 mph 76% 0 in 0 W/m2
20:19 47.8 °F 41.4 °F 30 in WSW 10.1 mph 11 mph 78% 0.01 in 0 W/m2
20:24 47.7 °F 41.7 °F 30 in SW 4 mph 5 mph 80% 0.02 in 0 W/m2
20:29 47.1 °F 41.9 °F 30 in East 4 mph 10 mph 82% 0.03 in 0 W/m2
20:34 46.8 °F 41.9 °F 30 in NW 2.9 mph 9 mph 83% 0.03 in 0 W/m2
20:39 46.6 °F 42.1 °F 30 in NW 2.9 mph 6 mph 84% 0.04 in 0 W/m2
20:44 46.6 °F 42.3 °F 30 in North 4.9 mph 9 mph 85% 0.05 in 0 W/m2
20:49 46.4 °F 42.4 °F 30 in North 2.9 mph 7 mph 86% 0.05 in 0 W/m2
20:54 46.2 °F 42.6 °F 30 in NE 0.9 mph 17 mph 87% 0.06 in 0 W/m2
21:00 46 °F 42.4 °F 30 in WNW 8.9 mph 12 mph 87% 0.06 in 0 W/m2
21:05 46 °F 42.6 °F 30 in SSW 4 mph 17 mph 88% 0.06 in 0 W/m2
21:10 46 °F 43 °F 30 in WSW 2 mph 4 mph 89% 0.07 in 0 W/m2
21:15 46 °F 43 °F 30 in South 0.9 mph 9 mph 89% 0.08 in 0 W/m2
21:20 45.9 °F 43.2 °F 30 in ESE 2 mph 3 mph 90% 0.08 in 0 W/m2
21:25 45.9 °F 43.2 °F 30 in North 2 mph 8 mph 90% 0.07 in 0 W/m2
21:30 45.9 °F 43.3 °F 30 in WNW 0.9 mph 15 mph 91% 0.07 in 0 W/m2
21:35 45.9 °F 43.3 °F 30 in NW 4 mph 9 mph 91% 0.09 in 0 W/m2
21:40 45.9 °F 43.3 °F 30 in West 25.1 mph 27 mph 91% 0.1 in 0 W/m2
21:45 45.1 °F 42.4 °F 30 in WNW 11 mph 20 mph 90% 0.11 in 0 W/m2
21:50 44.2 °F 41 °F 30 in West 8.9 mph 27 mph 88% 0.11 in 0 W/m2
21:55 43.5 °F 40.5 °F 30.1 in WSW 10.1 mph 14 mph 89% 0.1 in 0 W/m2
22:00 43.2 °F 39.9 °F 30.1 in WSW 17.9 mph 21 mph 88% 0.09 in 0 W/m2
22:05 42.8 °F 39.6 °F 30.1 in West 10.1 mph 17 mph 88% 0.09 in 0 W/m2
22:10 42.6 °F 39.4 °F 30.1 in West 6 mph 13 mph 88% 0.09 in 0 W/m2
22:15 42.4 °F 39.2 °F 30.1 in WSW 8.9 mph 20 mph 88% 0.08 in 0 W/m2
22:20 42.4 °F 39.2 °F 30.1 in West 8.9 mph 12 mph 88% 0.07 in 0 W/m2
22:25 42.4 °F 38.8 °F 30.1 in WNW 6.9 mph 20 mph 87% 0.06 in 0 W/m2
22:30 42.3 °F 38.7 °F 30.1 in WNW 8.1 mph 17 mph 87% 0.06 in 0 W/m2
22:35 42.3 °F 38.7 °F 30.1 in West 6.9 mph 9 mph 87% 0.04 in 0 W/m2
22:40 42.1 °F 38.5 °F 30.1 in West 2.9 mph 10 mph 87% 0.02 in 0 W/m2
22:45 42.1 °F 38.8 °F 30.1 in West 10.1 mph 16 mph 88% 0 in 0 W/m2
22:50 42.1 °F 38.5 °F 30.1 in West 4 mph 13 mph 87% 0 in 0 W/m2
22:55 41.9 °F 38.3 °F 30.1 in West 8.9 mph 13 mph 87% 0 in 0 W/m2
23:00 41.9 °F 38.3 °F 30.1 in West 6.9 mph 16 mph 87% 0 in 0 W/m2
23:05 41.9 °F 38.3 °F 30.1 in WNW 4 mph 12 mph 87% 0 in 0 W/m2
23:10 41.7 °F 38.5 °F 30.1 in WNW 14.1 mph 14 mph 88% 0 in 0 W/m2
23:15 41.7 °F 38.5 °F 30.1 in WSW 10.1 mph 12 mph 88% 0 in 0 W/m2
23:20 41.7 °F 38.5 °F 30.1 in West 6 mph 13 mph 88% 0 in 0 W/m2
23:25 41.7 °F 38.5 °F 30.1 in WNW 4 mph 10 mph 88% 0 in 0 W/m2
23:30 41.7 °F 38.5 °F 30.1 in SW 4.9 mph 11 mph 88% 0 in 0 W/m2
23:35 41.7 °F 38.5 °F 30.1 in WSW 4 mph 13 mph 88% 0 in 0 W/m2
23:40 41.7 °F 38.1 °F 30.1 in WNW 8.1 mph 10 mph 87% 0 in 0 W/m2
23:45 41.7 °F 38.1 °F 30.1 in WSW 6 mph 13 mph 87% 0 in 0 W/m2
23:50 41.7 °F 38.1 °F 30.1 in WNW 6.9 mph 8 mph 87% 0 in 0 W/m2
23:55 41.7 °F 37.8 °F 30.2 in NW 6 mph 12 mph 86% 0 in 0 W/m2
Juneau County Weather
Compliments of Weather Underground - 4 mb